CAPE
nan nan nan nan nan nan nan nan nan nan nan nan nan nan nan nan nan nan nan nan nan nan nan nan nan nan nan nan nan nan nan 2 8 8 14 18 20 20 21 21 21 22 24 27 27 29 29 29 29 31 31 33 34 34 36 38 38 46 52 56 56 62 70 76 76 79 88 97 95 95 97 100 99 99 99 102 100 100 105 106 106 109 117 120 120 124
nan nan nan nan nan nan nan nan nan nan nan nan nan nan nan nan nan nan nan nan nan nan nan nan nan nan nan nan nan nan 0 3 8 8 13 17 17 17 18 19 19 20 21 23 23 24 27 29 29 31 33 31 33 33 33 36 36 40 46 52 52 57 61 67 67 68 76 81 79 79 84 85 85 85 90 94 98 98 100 100 100 106 115 124 124 132
nan nan nan nan nan nan nan nan nan nan nan nan nan nan nan nan nan nan nan nan nan nan nan nan nan nan nan nan nan nan 0 4 8 8 11 13 13 13 14 16 16 18 19 20 20 22 23 26 26 28 29 32 34 34 33 33 33 37 42 47 47 53 56 57 57 59 63 67 68 68 71 72 75 75 84 93 96 96 99 100 100 101 108 119 119 131
nan nan nan nan nan nan nan nan nan nan nan nan nan nan nan nan nan nan nan nan nan nan nan nan nan nan nan nan nan nan 0 3 6 6 8 9 10 10 10 12 12 13 16 17 17 20 21 23 23 24 25 29 33 33 33 30 30 35 38 45 45 49 51 54 54 53 52 55 56 56 61 64 68 68 77 87 96 96 99 99 99 89 99 109 109 127
nan nan nan nan nan nan nan nan nan nan nan nan nan nan nan nan nan nan nan nan nan nan nan nan nan nan nan nan nan nan 0 3 3 3 4 5 5 5 6 7 7 9 11 13 13 15 17 19 19 21 23 26 32 32 31 32 32 35 37 41 41 46 51 50 50 52 51 51 54 54 56 59 66 66 72 84 90 90 94 94 94 88 93 105 105 122
nan nan nan nan nan nan nan nan nan nan nan nan nan nan nan nan nan nan nan nan nan nan nan nan nan nan nan nan nan nan nan 0 1 1 1 1 2 2 3 4 4 6 7 10 10 11 14 17 17 19 24 29 32 32 32 32 32 35 36 40 40 41 46 47 47 50 51 50 55 55 55 58 63 63 66 75 84 84 93 92 92 92 103 108 108 118
nan nan nan nan nan nan nan nan nan nan nan nan nan nan nan nan nan nan nan nan nan nan nan nan nan nan nan nan nan nan nan nan nan nan nan 0 1 1 2 3 3 5 7 9 9 12 15 19 19 22 25 30 33 33 34 34 34 34 35 36 36 39 42 42 42 44 44 45 49 49 50 53 57 57 59 66 72 72 83 92 92 94 110 117 117 128
nan nan nan nan nan nan nan nan nan nan nan nan nan nan nan nan nan nan 0 nan nan nan nan nan nan nan nan nan nan nan nan nan nan nan nan nan 0 0 2 5 5 9 10 13 13 15 17 20 20 24 25 26 28 28 28 28 28 28 28 28 28 29 31 31 31 32 32 35 34 34 36 39 43 43 45 49 53 53 59 75 75 97 126 142 142 158
nan nan nan nan nan nan nan nan nan nan nan nan nan nan nan nan nan nan nan nan nan nan nan nan nan nan nan nan nan nan nan nan nan nan nan nan nan nan 0 4 4 8 10 11 11 12 14 17 17 19 22 21 22 22 23 22 22 21 22 21 21 23 24 25 25 27 29 29 30 30 33 36 39 39 42 45 48 48 51 67 67 94 121 156 156 179
nan nan nan nan nan nan nan nan nan nan nan nan 0 0 1 nan nan nan nan nan nan nan nan nan nan nan nan nan nan nan nan nan 0 0 2 0 3 3 2 1 1 1 6 8 8 9 10 13 13 15 15 15 16 16 14 14 14 14 15 16 16 18 19 22 22 24 25 28 30 30 34 41 44 44 48 50 53 53 61 73 73 96 129 155 155 180
nan nan nan nan nan nan nan nan nan nan 1 1 2 2 2 0 nan nan nan nan nan nan nan nan nan nan nan nan nan nan nan nan nan nan nan 0 1 1 1 1 1 2 4 5 5 5 6 8 8 9 9 9 9 9 8 8 8 9 10 12 12 12 13 16 16 19 26 29 34 34 40 49 54 54 57 59 64 64 72 81 81 97 118 155 155 177
nan nan nan nan nan nan nan 0 0 0 2 2 0 0 nan nan 0 0 nan nan nan nan nan nan nan nan nan nan nan nan nan nan nan nan nan nan nan nan nan nan nan nan 0 1 1 1 3 3 3 4 4 2 4 4 4 3 3 4 6 7 7 8 12 15 15 20 26 31 38 38 45 52 54 54 60 65 72 72 76 85 85 97 118 146 146 165
nan nan nan nan nan nan nan 0 0 0 1 1 nan nan nan nan 0 0 2 0 0 0 0 0 0 nan nan nan nan nan nan nan nan nan nan nan nan nan nan nan nan nan nan nan nan nan nan 1 1 2 1 0 1 1 1 1 1 2 3 6 6 8 14 19 19 25 29 35 40 40 46 51 56 56 58 66 72 72 80 84 84 93 108 135 135 155
nan 0 nan nan nan nan 0 1 2 2 3 1 0 0 nan nan 0 0 2 2 2 2 2 1 1 0 0 nan nan nan nan nan nan nan nan nan nan nan nan nan nan nan nan nan nan nan nan nan nan nan nan nan nan nan nan 0 0 1 4 9 9 13 18 23 23 25 31 36 40 40 46 50 51 51 58 65 71 71 77 85 85 92 99 114 114 134
0 0 0 1 1 1 1 3 4 4 2 0 0 0 nan 0 2 2 3 3 3 3 3 2 2 1 0 nan nan nan nan nan nan nan nan nan 0 0 0 nan nan nan nan nan nan nan nan nan nan nan nan nan nan nan nan nan nan 4 6 10 10 15 20 24 24 28 31 36 40 40 46 50 54 54 60 65 70 70 79 82 82 85 95 106 106 116
2 1 1 3 3 4 5 7 4 4 0 nan nan nan nan 2 3 3 4 4 4 4 3 3 3 3 0 0 nan nan 0 1 1 1 1 0 nan nan 0 nan nan nan nan nan nan nan nan nan nan nan nan nan nan nan 0 1 1 5 9 13 13 17 20 25 25 28 30 34 40 40 46 50 55 55 60 68 70 70 78 81 81 87 93 103 103 113
5 7 9 9 9 9 7 4 0 0 nan nan nan nan 1 5 12 12 10 7 7 4 4 3 3 3 2 0 0 0 1 2 5 5 2 1 nan nan 0 nan nan nan nan nan nan nan nan nan nan nan nan nan nan nan 1 3 3 7 10 13 13 16 20 24 24 29 32 36 41 41 47 50 55 55 60 65 68 68 73 79 79 85 91 101 101 106
10 11 13 17 17 9 3 0 nan nan 0 nan 1 1 4 14 19 19 12 8 8 5 4 4 4 4 2 2 0 0 2 3 2 2 1 0 nan nan nan 0 0 nan nan nan nan nan nan nan nan nan nan 0 2 2 3 6 6 8 11 13 13 16 20 25 25 29 34 37 41 41 47 49 54 54 59 64 68 68 72 81 81 87 93 99 99 104
14 9 8 7 7 2 0 nan nan nan nan 1 8 8 17 17 14 14 11 3 3 0 1 0 0 4 5 3 0 0 2 1 1 1 1 1 nan nan nan nan nan nan nan nan nan nan nan nan nan nan nan 1 2 2 5 8 8 10 12 14 14 18 23 28 28 33 35 39 45 45 45 49 51 51 55 61 67 67 71 76 76 85 87 93 93 99
13 7 5 1 1 1 1 0 0 0 2 8 19 19 18 14 8 8 3 0 0 1 1 1 1 3 5 4 2 2 2 1 0 0 2 0 nan nan nan nan nan nan nan nan nan nan nan nan nan nan nan 0 3 3 5 8 8 12 14 17 17 21 24 30 30 33 40 42 44 44 47 51 53 53 55 58 63 63 72 76 76 81 88 94 94 102
10 6 2 1 1 3 3 2 4 4 13 20 17 17 11 5 nan nan 0 2 2 2 2 8 8 6 3 3 2 2 1 1 1 1 1 1 nan nan nan nan nan nan nan nan nan nan nan nan nan nan nan 0 3 3 5 8 8 12 15 19 19 22 27 32 32 35 40 42 44 44 45 48 50 50 52 57 63 63 67 77 77 83 93 99 99 99
14 10 7 10 10 11 11 12 19 19 27 27 17 17 3 nan 0 0 nan 0 0 2 1 16 16 7 2 2 1 1 3 2 2 2 3 1 nan nan nan nan nan nan nan nan nan nan nan nan nan nan nan 1 3 3 4 7 7 12 16 20 20 24 28 33 33 34 39 41 42 42 43 45 49 49 50 56 60 60 67 73 73 80 86 88 88 96
30 21 17 19 19 20 18 17 17 17 14 10 4 4 0 nan 0 0 0 3 3 5 9 9 9 3 2 1 1 1 2 2 3 3 3 0 nan nan nan nan nan nan nan nan nan nan nan nan nan nan nan 3 3 3 4 6 6 10 14 19 19 25 28 32 32 34 36 39 40 40 42 43 46 46 48 54 58 58 61 67 67 72 75 80 80 83
25 21 14 11 11 13 10 6 3 3 nan nan nan nan nan nan 1 1 10 11 11 4 3 1 1 0 1 1 0 0 0 1 3 3 2 1 nan nan nan nan nan nan nan nan nan nan nan nan nan nan nan 1 3 3 3 4 4 7 12 19 19 22 25 29 29 30 35 37 38 38 39 41 44 44 46 46 50 50 52 58 58 63 67 68 68 72
10 9 8 9 9 13 12 8 13 13 4 2 6 6 1 0 6 6 5 2 2 2 1 0 0 0 0 1 nan nan nan 0 2 2 1 0 nan nan nan nan nan nan nan nan nan nan nan nan nan nan nan nan 2 2 2 4 4 7 10 14 14 18 20 23 23 25 28 32 34 34 33 36 37 37 39 41 44 44 45 53 53 56 61 62 62 66
12 14 15 24 24 38 56 77 86 86 58 9 6 6 4 4 4 4 2 2 2 2 3 2 2 1 0 0 nan nan nan 0 1 1 1 0 nan nan nan nan nan nan nan nan nan nan nan nan nan nan nan nan 1 1 2 4 4 6 8 11 11 13 15 17 17 18 20 22 25 25 27 30 35 35 36 37 40 40 44 49 49 51 58 58 58 65
16 24 34 40 40 50 56 49 41 41 36 24 8 8 7 7 6 6 3 2 2 2 2 2 2 2 1 0 nan nan nan nan 1 1 1 0 nan nan nan nan nan nan nan nan nan nan 0 nan nan nan nan nan nan nan 2 4 4 7 7 8 8 8 8 11 11 13 15 18 20 20 26 30 33 33 36 37 41 41 44 46 46 54 54 58 58 63
12 22 29 35 35 34 31 25 24 24 23 25 30 30 18 8 4 4 2 1 1 3 3 1 1 2 1 0 nan nan nan nan nan nan 1 1 0 0 nan nan nan nan nan nan nan 2 6 2 2 nan nan nan nan nan 0 4 4 4 4 4 4 5 6 8 8 9 11 14 19 19 23 28 34 34 36 40 43 43 47 46 46 51 56 45 45 27
7 16 20 17 17 15 15 13 13 13 11 13 18 18 13 6 5 5 3 3 3 4 4 3 3 2 1 0 nan nan nan nan nan nan 1 0 0 0 nan nan nan nan nan 0 0 2 3 1 1 nan nan nan nan nan nan 2 2 1 3 3 3 4 4 6 6 7 9 13 17 17 20 27 32 32 36 38 42 42 44 45 45 49 45 33 33 23
3 3 2 1 1 0 nan nan nan nan nan 3 9 9 12 8 8 8 6 5 5 4 4 3 3 3 2 1 0 0 nan nan nan nan 0 nan nan nan nan nan nan nan nan 0 0 nan nan nan nan nan nan nan nan nan nan nan nan nan 0 3 3 2 3 4 4 7 9 12 16 16 20 24 29 29 31 36 39 39 39 40 40 36 25 20 20 17
nan nan nan nan nan nan nan nan nan nan nan 2 8 8 8 4 2 2 1 3 3 4 4 3 3 3 4 2 1 1 nan nan nan nan nan 0 0 0 nan nan nan 0 0 nan nan nan nan nan nan nan nan nan nan nan nan nan nan nan nan nan nan nan 1 3 3 6 10 12 16 16 19 22 24 24 25 29 32 32 36 39 39 30 16 14 14 15
nan nan nan nan nan nan nan nan nan nan nan nan nan nan nan 2 4 4 5 7 7 8 9 8 8 6 7 4 1 1 nan nan nan nan 1 0 2 2 1 0 0 nan 2 nan nan nan nan nan nan nan nan nan nan nan nan nan nan nan nan nan nan nan 0 2 2 2 2 6 8 8 9 10 12 12 14 16 19 19 23 27 27 30 17 10 10 14
nan nan nan nan nan nan nan nan nan nan nan nan nan nan 0 3 6 6 7 8 8 10 9 8 8 6 4 3 2 2 0 nan 0 0 3 nan 1 1 2 1 1 1 2 2 2 0 nan nan nan nan 0 nan 0 0 nan nan nan nan nan nan nan nan nan nan nan nan 0 1 3 3 6 6 8 8 10 11 13 13 17 20 20 24 26 8 8 14
nan nan nan nan nan nan nan nan nan nan nan nan 1 1 2 2 4 4 7 7 7 9 9 8 8 7 2 3 1 1 nan nan 0 0 3 0 1 1 1 0 0 0 0 1 1 1 0 0 0 0 nan nan nan nan nan nan nan nan nan nan nan nan nan nan nan nan nan 0 nan nan 0 0 4 4 3 7 8 8 13 18 18 24 32 20 20 18
nan nan nan nan nan nan nan nan nan nan nan 0 0 0 0 1 2 2 5 6 6 7 8 9 9 8 6 4 1 1 nan nan 0 0 4 2 0 0 0 0 0 1 0 1 1 1 1 1 1 2 0 nan nan nan nan nan nan nan nan nan nan nan nan nan nan 0 0 nan nan nan nan nan nan nan 0 2 6 6 12 19 19 24 31 40 40 36
nan nan nan nan nan nan nan nan nan nan nan nan nan nan 0 0 1 1 3 6 6 7 10 8 8 9 7 4 1 1 0 nan 1 1 5 2 nan nan 0 1 1 0 0 1 1 2 1 2 2 3 3 1 nan nan nan nan nan nan nan nan nan 0 0 0 0 0 0 nan nan nan nan nan 0 0 0 5 10 10 14 19 19 24 28 39 39 44
nan nan nan nan nan nan nan nan nan nan nan nan 0 0 0 1 2 2 2 6 6 8 7 10 10 8 12 5 3 3 2 1 2 2 4 2 nan nan 0 1 1 2 0 0 0 1 0 2 2 4 1 0 nan nan nan nan nan nan nan nan nan 0 0 0 0 1 1 0 0 0 1 1 2 2 3 8 10 10 13 17 17 15 20 23 23 31
nan nan nan nan nan nan nan nan nan nan nan 0 1 1 1 1 3 3 2 5 5 7 7 5 5 3 9 11 7 7 4 4 3 3 3 1 0 0 nan 1 1 6 2 nan nan 0 0 1 1 2 1 0 1 1 1 0 0 nan nan nan nan 0 nan 0 0 1 1 2 2 2 3 2 1 1 3 4 3 3 3 1 1 7 12 15 15 23
nan nan nan 0 0 nan nan nan nan nan 0 0 1 1 1 2 3 3 1 2 2 2 3 2 2 2 2 2 8 8 9 3 nan nan 0 2 0 0 nan 0 0 2 2 0 0 nan 0 0 0 0 2 1 0 0 0 nan nan nan nan 0 0 0 nan 0 0 1 2 2 3 3 3 1 1 1 1 2 2 2 1 1 1 3 4 4 4 13
0 0 0 0 0 0 nan 0 0 0 0 1 2 2 1 2 1 1 0 0 0 0 1 2 2 2 2 4 5 5 5 2 4 4 1 0 1 1 nan nan nan 1 1 0 0 0 nan nan nan 1 2 1 1 1 0 0 0 0 2 0 0 nan nan nan nan 0 1 1 2 2 2 1 1 1 2 3 3 3 3 1 1 3 6 5 5 5
0 0 0 nan nan 0 0 1 0 0 1 1 1 1 1 2 1 1 1 2 2 2 1 2 2 2 2 1 1 1 1 1 3 3 nan nan nan nan nan nan nan 0 nan 0 0 nan nan nan nan 1 1 0 2 2 1 0 0 2 4 1 1 0 nan 1 1 0 1 1 2 2 3 3 4 4 3 3 2 2 4 3 3 4 5 6 6 5
1 1 0 nan nan nan 0 0 2 2 2 2 1 1 1 1 2 2 2 2 2 2 2 2 2 1 1 0 nan nan 0 nan nan nan nan nan nan nan nan nan nan nan nan 0 0 1 1 0 0 1 1 nan nan nan 0 0 0 1 2 0 0 1 1 1 1 0 0 1 2 2 4 2 1 1 2 1 2 2 5 5 5 10 9 6 6 6
1 0 0 nan nan nan 1 3 3 3 2 1 1 1 1 2 3 3 3 2 2 2 1 1 1 1 0 nan nan nan nan 0 0 0 nan nan nan nan nan nan nan nan nan 0 0 nan 2 2 2 0 1 nan 0 0 1 1 1 1 1 1 1 0 nan nan nan nan 0 1 1 1 1 1 1 1 2 2 2 2 5 8 8 14 13 4 4 4
1 0 nan nan nan 1 2 2 1 1 1 1 0 0 1 2 3 3 4 2 2 2 1 1 1 1 0 0 nan nan nan nan 0 0 1 0 nan nan nan nan nan nan nan nan nan nan 1 2 2 1 0 nan 1 1 2 1 1 0 0 1 1 0 nan 0 0 0 0 1 1 1 1 1 2 2 1 2 2 2 3 3 3 3 7 4 4 3
nan nan nan 0 0 1 1 1 0 0 1 0 0 0 1 1 3 3 3 1 1 1 1 1 1 0 0 nan nan nan nan nan nan nan 0 1 4 4 1 0 0 0 nan nan nan nan nan 0 0 1 1 nan 0 0 0 0 0 1 1 1 1 1 0 0 0 0 1 0 0 0 0 2 0 0 0 0 1 1 1 1 1 1 3 4 4 3
0 0 0 0 0 0 1 1 1 1 1 1 1 1 1 2 1 1 1 1 1 1 0 1 1 0 0 0 nan nan nan nan nan nan nan 0 1 1 2 0 0 nan nan nan nan nan nan nan nan nan nan nan 0 0 0 1 1 nan 0 1 1 0 nan 0 0 0 0 0 0 0 0 2 1 1 0 0 1 1 1 1 1 1 0 3 3 3
0 1 1 0 0 0 0 1 1 1 1 2 2 2 1 1 1 1 1 1 1 1 1 1 1 0 0 0 nan nan nan nan nan nan nan nan 0 0 0 0 0 2 0 nan nan nan nan nan nan nan nan nan 1 1 0 0 0 nan 0 0 0 0 0 0 0 0 0 1 0 0 1 2 1 1 1 0 0 0 1 3 3 2 1 1 1 2
1 2 1 0 0 0 0 1 2 2 2 2 1 1 1 1 1 1 2 1 1 1 1 0 0 0 0 0 0 0 0 0 nan nan nan nan nan nan nan nan nan 1 3 3 3 2 0 1 1 nan nan nan nan nan 0 0 0 0 nan 0 0 nan nan nan nan 0 0 0 0 0 0 1 1 1 0 0 0 0 1 4 4 3 2 2 2 3
1 1 1 0 0 0 0 1 2 2 2 2 1 1 1 2 8 8 2 1 1 1 0 0 0 0 0 0 0 0 0 0 nan nan nan nan nan nan nan nan nan nan 0 2 2 2 3 4 4 3 0 nan 0 0 0 0 0 0 0 0 0 nan nan nan nan nan 0 0 nan nan nan nan 0 0 0 0 0 0 2 4 4 4 5 4 4 4
0 0 0 0 0 0 0 1 2 2 2 2 2 2 1 1 1 1 1 1 1 0 0 0 0 0 0 0 0 0 0 0 nan nan nan nan nan nan nan 0 0 0 1 1 1 0 1 1 1 1 2 nan nan nan nan nan nan nan nan nan nan nan nan nan nan nan nan nan 0 0 2 3 2 2 0 0 2 2 1 3 3 6 6 7 7 6
0 0 nan 0 0 1 1 1 2 2 2 2 2 2 2 2 1 1 1 1 1 0 0 0 0 0 0 0 0 0 0 nan 0 0 nan nan nan nan 0 0 0 0 0 0 0 nan 0 nan nan nan nan 2 0 0 nan nan nan nan 1 1 1 0 nan nan nan 0 1 0 1 1 3 5 1 1 nan 0 1 1 0 1 1 4 4 4 4 8
CIN
nan nan nan nan nan nan nan nan nan nan nan nan nan nan nan nan nan nan nan nan nan nan nan nan nan nan nan nan nan nan nan -0 -0 -0 -0 -0 -0 -0 -0 -0 -0 -0 -0 -0 -0 -0 -0 -0 -0 -0 -0 -0 -0 -0 -0 -0 -0 -0 -0 -0 -0 -0 -0 -0 -0 -0 -0 -0 -0 -0 -0 -0 -0 -0 -0 -0 -0 -0 -0 -0 -0 -0 -0 -0 -0 -0
nan nan nan nan nan nan nan nan nan nan nan nan nan nan nan nan nan nan nan nan nan nan nan nan nan nan nan nan nan nan -0 -0 -0 -0 -0 -0 -0 -0 -0 -0 -0 -0 -0 -0 -0 -0 -0 -0 -0 -0 -0 -0 -0 -0 -0 -0 -0 -0 -0 -0 -0 -0 -0 -0 -0 -0 -0 -0 -0 -0 -0 -0 -0 -0 -0 -0 -0 -0 -0 -0 -0 -0 -0 -0 -0 -0
nan nan nan nan nan nan nan nan nan nan nan nan nan nan nan nan nan nan nan nan nan nan nan nan nan nan nan nan nan nan -0 -0 -0 -0 -0 -0 -0 -0 -0 -0 -0 -0 -0 -0 -0 -0 -0 -0 -0 -0 -0 -0 -0 -0 -0 -0 -0 -0 -0 -0 -0 -0 -0 -0 -0 -0 -0 -0 -0 -0 -0 -0 -0 -0 -0 -0 -0 -0 -0 -0 -0 -0 -0 -0 -0 -0
nan nan nan nan nan nan nan nan nan nan nan nan nan nan nan nan nan nan nan nan nan nan nan nan nan nan nan nan nan nan -0 -0 -0 -0 -0 -0 -0 -0 -0 -0 -0 -0 -0 -0 -0 -0 -0 -0 -0 -0 -0 -0 -0 -0 -0 -0 -0 -0 -0 -0 -0 -0 -0 -0 -0 -0 -0 -0 -0 -0 -0 -0 -0 -0 -0 -0 -0 -0 -0 -0 -0 -0 -0 -0 -0 -0
nan nan nan nan nan nan nan nan nan nan nan nan nan nan nan nan nan nan nan nan nan nan nan nan nan nan nan nan nan nan -0 -0 -0 -0 -0 -0 -0 -0 -0 -0 -0 -0 -0 -0 -0 -0 -0 -0 -0 -0 -0 -0 -0 -0 -0 -0 -0 -0 -0 -0 -0 -0 -0 -0 -0 -0 -0 -0 -0 -0 -0 -0 -0 -0 -0 -0 -0 -0 -0 -0 -0 -0 -0 -0 -0 -0
nan nan nan nan nan nan nan nan nan nan nan nan nan nan nan nan nan nan nan nan nan nan nan nan nan nan nan nan nan nan nan -0 -0 -0 -0 -0 -0 -0 -0 -0 -0 -0 -0 -0 -0 -0 -0 -0 -0 -0 -0 -0 -0 -0 -0 -0 -0 -0 -0 -0 -0 -0 -0 -0 -0 -0 -0 -0 -0 -0 -0 -0 -0 -0 -0 -0 -0 -0 -0 -0 -0 -0 -0 -0 -0 -0
nan nan nan nan nan nan nan nan nan nan nan nan nan nan nan nan nan nan nan nan nan nan nan nan nan nan nan nan nan nan nan nan nan nan nan -0 -0 -0 -0 -0 -0 -0 -0 -0 -0 -0 -0 -0 -0 -0 -0 -0 -0 -0 -0 -0 -0 -0 -0 -0 -0 -0 -0 -0 -0 -0 -0 -0 -0 -0 -0 -0 -0 -0 -0 -0 -0 -0 -0 -0 -0 -0 -0 -0 -0 -0
nan nan nan nan nan nan nan nan nan nan nan nan nan nan nan nan nan nan -0 nan nan nan nan nan nan nan nan nan nan nan nan nan nan nan nan nan -0 -0 -0 -0 -0 -0 -0 -0 -0 -0 -0 -0 -0 -0 -0 -0 -0 -0 -0 -0 -0 -0 -0 -0 -0 -0 -0 -0 -0 -0 -0 -0 -0 -0 -0 -0 -0 -0 -0 -0 -0 -0 -0 -0 -0 -0 -0 -0 -0 -0
nan nan nan nan nan nan nan nan nan nan nan nan nan nan nan nan nan nan nan nan nan nan nan nan nan nan nan nan nan nan nan nan nan nan nan nan nan nan -0 -0 -0 -0 -0 -0 -0 -0 -0 -0 -0 -0 -0 -0 -0 -0 -0 -0 -0 -0 -0 -0 -0 -0 -0 -0 -0 -0 -0 -0 -0 -0 -0 -0 -0 -0 -0 -0 -0 -0 -0 -0 -0 -0 -0 -0 -0 -0
nan nan nan nan nan nan nan nan nan nan nan nan -0 -0 -0 nan nan nan nan nan nan nan nan nan nan nan nan nan nan nan nan nan -0 -0 -0 -0 -0 -0 -0 -0 -0 -0 -0 -0 -0 -0 -0 -0 -0 -0 -0 -0 -0 -0 -0 -0 -0 -0 -0 -0 -0 -0 -0 -0 -0 -0 -0 -0 -0 -0 -0 -0 -0 -0 -0 -0 -0 -0 -0 -0 -0 -0 -0 -0 -0 -0
nan nan nan nan nan nan nan nan nan nan -0 -1 -0 -0 -0 -0 nan nan nan nan nan nan nan nan nan nan nan nan nan nan nan nan nan nan nan -0 -0 -0 -0 -0 -0 -0 -0 -0 -0 -0 -0 -0 -0 -0 -0 -0 -0 -0 -0 -0 -0 -0 -0 -0 -0 -0 -0 -0 -0 -0 -0 -0 -0 -0 -0 -0 -0 -0 -0 -0 -0 -0 -0 -0 -0 -0 -0 -0 -0 -0
nan nan nan nan nan nan nan -0 -0 -0 -0 -0 -0 -0 nan nan -0 -0 nan nan nan nan nan nan nan nan nan nan nan nan nan nan nan nan nan nan nan nan nan nan nan nan -0 -0 -0 -0 -0 -0 -0 -0 -0 -0 -0 -0 -0 -0 -0 -0 -0 -0 -0 -0 -0 -0 -0 -0 -0 -0 -0 -0 -0 -0 -0 -0 -0 -0 -0 -0 -0 -0 -0 -0 -0 -0 -0 -0
nan nan nan nan nan nan nan -0 -0 -0 -0 -0 nan nan nan nan -0 -0 -0 -0 -0 -0 -0 -0 -0 nan nan nan nan nan nan nan nan nan nan nan nan nan nan nan nan nan nan nan nan nan nan -0 -0 -0 -0 -0 -0 -0 -0 -0 -0 -0 -0 -0 -0 -0 -0 -0 -0 -0 -0 -0 -0 -0 -0 -0 -0 -0 -0 -0 -0 -0 -0 -0 -0 -0 -0 -0 -0 -0
nan -0 nan nan nan nan -0 -0 -0 -0 -0 -0 -0 -0 nan nan -0 -0 -0 -0 -0 -0 -0 -0 -0 -0 -0 nan nan nan nan nan nan nan nan nan nan nan nan nan nan nan nan nan nan nan nan nan nan nan nan nan nan nan nan -0 -0 -0 -0 -0 -0 -0 -0 -0 -0 -0 -0 -0 -0 -0 -0 -0 -0 -0 -0 -0 -0 -0 -0 -0 -0 -0 -0 -0 -0 -0
-1 -0 -0 -0 -0 -0 -0 -0 -0 -0 -0 -0 -0 -0 nan -0 -0 -0 -0 -0 -0 -0 -0 -0 -0 -0 -0 nan nan nan nan nan nan nan nan nan -0 -0 -0 nan nan nan nan nan nan nan nan nan nan nan nan nan nan nan nan nan nan -0 -0 -0 -0 -0 -0 -0 -0 -0 -0 -0 -0 -0 -0 -0 -0 -0 -0 -0 -0 -0 -0 -0 -0 -0 -0 -0 -0 -0
-0 -0 -0 -0 -0 -0 -0 -0 -0 -0 -0 nan nan nan nan -0 -0 -0 -0 -0 -0 -0 -0 -0 -0 -0 -0 -0 nan nan -0 -0 -0 -0 -0 -0 nan nan -0 nan nan nan nan nan nan nan nan nan nan nan nan nan nan nan -0 -0 -0 -0 -0 -0 -0 -0 -0 -0 -0 -0 -0 -0 -0 -0 -0 -0 -0 -0 -0 -0 -0 -0 -0 -0 -0 -0 -0 -0 -0 -0
-0 -0 -0 -0 -0 -0 -0 -0 -0 -0 nan nan nan nan -0 -0 -0 -0 -0 -0 -0 -0 -0 -0 -0 -0 -0 -0 -0 -0 -0 -0 -0 -0 -0 -0 nan nan -0 nan nan nan nan nan nan nan nan nan nan nan nan nan nan nan -0 -0 -0 -0 -0 -0 -0 -0 -0 -0 -0 -0 -0 -0 -0 -0 -0 -0 -0 -0 -0 -0 -0 -0 -0 -0 -0 -0 -0 -0 -0 -0
-0 -0 -0 -0 -0 -0 -0 -0 nan nan -0 nan -0 -0 -0 -0 -0 -0 -0 -0 -0 -0 -0 -0 -0 -0 -0 -0 -0 -0 -0 -0 -0 -0 -0 -0 nan nan nan -0 -0 nan nan nan nan nan nan nan nan nan nan -0 -0 -0 -0 -0 -0 -0 -0 -0 -0 -0 -0 -0 -0 -0 -0 -0 -0 -0 -0 -0 -0 -0 -0 -0 -0 -0 -0 -0 -0 -0 -0 -0 -0 -0
-0 -0 -0 -0 -0 -0 -0 nan nan nan nan -0 -0 -0 -0 -0 -0 -0 -0 -0 -0 -0 -0 -0 -0 -0 -0 -0 -0 -0 -0 -0 -0 -0 -0 -0 nan nan nan nan nan nan nan nan nan nan nan nan nan nan nan -0 -0 -0 -0 -0 -0 -0 -0 -0 -0 -0 -0 -0 -0 -0 -0 -0 -0 -0 -0 -0 -0 -0 -0 -0 -0 -0 -0 -0 -0 -0 -0 -0 -0 -0
-0 -0 -0 -0 -0 -0 -0 -0 -0 -0 -0 -0 -0 -0 -0 -0 -0 -0 -0 -0 -0 -0 -0 -0 -0 -0 -0 -0 -0 -0 -0 -0 -0 -0 -0 -0 nan nan nan nan nan nan nan nan nan nan nan nan nan nan nan -0 -0 -0 -0 -0 -0 -0 -0 -0 -0 -0 -0 -0 -0 -0 -0 -0 -0 -0 -0 -0 -0 -0 -0 -0 -0 -0 -0 -0 -0 -0 -0 -0 -0 -0
-0 -0 -0 -0 -0 -0 -0 -0 -0 -0 -0 -0 -0 -0 -0 -0 nan nan -0 -0 -0 -0 -0 -0 -0 -0 -0 -0 -0 -0 -0 -0 -0 -0 -0 -0 nan nan nan nan nan nan nan nan nan nan nan nan nan nan nan -0 -0 -0 -0 -0 -0 -0 -0 -0 -0 -0 -0 -0 -0 -0 -0 -0 -0 -0 -0 -0 -0 -0 -0 -0 -0 -0 -0 -0 -0 -0 -0 -0 -0 -0
-0 -0 -0 -0 -0 -0 -0 -0 -0 -0 -0 -0 -0 -0 -0 nan -0 -0 nan -0 -0 -0 -0 -0 -0 -0 -1 -0 -0 -0 -0 -0 -0 -0 -0 -0 nan nan nan nan nan nan nan nan nan nan nan nan nan nan nan -0 -0 -0 -0 -0 -0 -0 -0 -0 -0 -0 -0 -0 -0 -0 -0 -0 -0 -0 -0 -0 -0 -0 -0 -0 -0 -0 -0 -0 -0 -0 -0 -0 -0 -0
-0 -0 -0 -0 -0 -0 -0 -0 -0 -0 -0 -0 -0 -0 -0 nan -0 -0 -0 -0 -0 -0 -0 -0 -0 -1 -0 -0 -0 -0 -0 -0 -0 -0 -0 -0 nan nan nan nan nan nan nan nan nan nan nan nan nan nan nan -0 -0 -0 -0 -0 -0 -0 -0 -0 -0 -0 -0 -0 -0 -0 -0 -0 -0 -0 -0 -0 -0 -0 -0 -0 -0 -0 -0 -0 -0 -0 -0 -0 -0 -0
-0 -0 -0 -0 -0 -0 -0 -0 -0 -0 nan nan nan nan nan nan -0 -0 -0 -0 -0 -1 -1 -0 -0 -0 -0 -0 -0 -0 -0 -0 -0 -0 -0 -0 nan nan nan nan nan nan nan nan nan nan nan nan nan nan nan -0 -0 -0 -0 -0 -0 -0 -0 -0 -0 -0 -0 -0 -0 -0 -0 -0 -0 -0 -0 -0 -0 -0 -0 -0 -0 -0 -0 -0 -0 -0 -0 -0 -0 -0
-0 -0 -0 -0 -0 -0 -0 -0 -0 -0 -4 -18 -0 -0 -15 -6 -0 -0 -0 -0 -0 -0 -0 -0 -0 -0 -0 -0 nan nan nan -0 -0 -0 -0 -0 nan nan nan nan nan nan nan nan nan nan nan nan nan nan nan nan -0 -0 -0 -0 -0 -0 -0 -0 -0 -0 -0 -0 -0 -0 -0 -0 -0 -0 -0 -0 -0 -0 -0 -0 -0 -0 -0 -0 -0 -0 -0 -0 -0 -0
-0 -0 -0 -0 -0 -0 -0 -0 -0 -0 -0 -1 -0 -0 -0 -0 -0 -0 -0 -0 -0 -0 -0 -0 -0 -0 -0 -0 nan nan nan -0 -0 -0 -0 -0 nan nan nan nan nan nan nan nan nan nan nan nan nan nan nan nan -0 -0 -0 -0 -0 -0 -0 -0 -0 -0 -0 -0 -0 -0 -0 -0 -0 -0 -0 -0 -0 -0 -0 -0 -0 -0 -0 -0 -0 -0 -0 -0 -0 -0
-0 -0 -0 -0 -0 -0 -0 -0 -0 -0 -0 -0 -0 -0 -0 -0 -0 -0 -0 -0 -0 -0 -0 -0 -0 -0 -0 -0 nan nan nan nan -0 -0 -0 -0 nan nan nan nan nan nan nan nan nan nan -0 nan nan nan nan nan nan nan -0 -0 -0 -0 -0 -0 -0 -0 -0 -0 -0 -0 -0 -0 -0 -0 -0 -0 -0 -0 -0 -0 -0 -0 -0 -0 -0 -0 -0 -0 -0 -0
-0 -0 -0 -0 -0 -0 -0 -0 -0 -0 -0 -0 -0 -0 -0 -0 -0 -0 -0 -0 -0 -0 -0 -0 -0 -0 -0 -0 nan nan nan nan nan nan -0 -0 -0 -0 nan nan nan nan nan nan nan -0 -0 -0 -0 nan nan nan nan nan -0 -0 -0 -0 -0 -0 -0 -0 -0 -0 -0 -0 -0 -0 -0 -0 -0 -0 -0 -0 -0 -0 -0 -0 -0 -0 -0 -0 -0 -0 -0 -0
-0 -0 -0 -0 -0 -0 -0 -0 -0 -0 -0 -0 -0 -0 -0 -0 -0 -0 -0 -0 -0 -0 -0 -0 -0 -0 -0 -0 nan nan nan nan nan nan -0 -0 -0 -0 nan nan nan nan nan -0 -0 -0 -0 -0 -0 nan nan nan nan nan nan -0 -0 -0 -0 -0 -0 -0 -0 -0 -0 -0 -0 -0 -0 -0 -0 -0 -0 -0 -0 -0 -0 -0 -0 -0 -0 -0 -0 -0 -0 -0
-0 -2 -3 -3 -3 -2 nan nan nan nan nan -0 -0 -0 -0 -0 -0 -0 -0 -0 -0 -0 -0 -0 -0 -0 -0 -0 -0 -0 nan nan nan nan -0 nan nan nan nan nan nan nan nan -0 -0 nan nan nan nan nan nan nan nan nan nan nan nan nan -0 -0 -0 -0 -0 -0 -0 -0 -0 -0 -0 -0 -0 -0 -0 -0 -0 -0 -0 -0 -0 -0 -0 -0 -0 -0 -0 -0
nan nan nan nan nan nan nan nan nan nan nan -0 -0 -0 -0 -0 -0 -0 -0 -0 -0 -0 -0 -0 -0 -0 -0 -0 -0 -0 nan nan nan nan nan -0 -0 -0 nan nan nan -0 -0 nan nan nan nan nan nan nan nan nan nan nan nan nan nan nan nan nan nan nan -0 -0 -0 -0 -0 -0 -0 -0 -0 -0 -0 -0 -0 -0 -0 -0 -0 -0 -0 -0 -0 -0 -0 -0
nan nan nan nan nan nan nan nan nan nan nan nan nan nan nan -0 -0 -0 -0 -0 -0 -0 -0 -0 -0 -0 -0 -0 -0 -0 nan nan nan nan -0 -0 -0 -0 -0 -0 -0 nan -0 nan nan nan nan nan nan nan nan nan nan nan nan nan nan nan nan nan nan nan -0 -0 -0 -0 -0 -0 -0 -0 -0 -0 -0 -0 -0 -0 -0 -0 -0 -0 -0 -0 -0 -0 -0 -0
nan nan nan nan nan nan nan nan nan nan nan nan nan nan -0 -0 -0 -0 -0 -0 -0 -0 -0 -0 -0 -0 -0 -0 -0 -0 -0 nan -0 -0 -0 nan -0 -0 -0 -0 -0 -0 -0 -0 -0 -0 nan nan nan nan -0 nan -0 -0 nan nan nan nan nan nan nan nan nan nan nan nan -0 -0 -0 -0 -0 -0 -0 -0 -0 -0 -0 -0 -0 -0 -0 -0 -0 -0 -0 -0
nan nan nan nan nan nan nan nan nan nan nan nan -0 -0 -0 -0 -0 -0 -0 -0 -0 -0 -0 -0 -0 -0 -0 -0 -0 -0 nan nan -0 -0 -0 -0 -0 -0 -0 -0 -0 -0 -0 -0 -0 -0 -0 -0 -0 -0 nan nan nan nan nan nan nan nan nan nan nan nan nan nan nan nan nan -0 nan nan -0 -0 -0 -0 -0 -0 -0 -0 -0 -0 -0 -0 -0 -0 -0 -0
nan nan nan nan nan nan nan nan nan nan nan -0 -0 -0 -0 -0 -0 -0 -0 -0 -0 -0 -0 -0 -0 -0 -0 -0 -0 -0 nan nan -0 -0 -0 -0 -0 -0 -0 -0 -0 -0 -0 -0 -0 -0 -0 -0 -0 -0 -0 nan nan nan nan nan nan nan nan nan nan nan nan nan nan -0 -0 nan nan nan nan nan nan nan -0 -0 -0 -0 -0 -0 -0 -0 -0 -0 -0 -0
nan nan nan nan nan nan nan nan nan nan nan nan nan nan -0 -0 -0 -0 -0 -0 -0 -0 -0 -0 -0 -0 -0 -0 -0 -0 -0 nan -0 -0 -0 -0 nan nan -0 -0 -0 -0 -0 -0 -0 -0 -0 -0 -0 -0 -0 -0 nan nan nan nan nan nan nan nan nan -0 -0 -0 -0 -0 -0 nan nan nan nan nan -0 -0 -0 -0 -0 -0 -0 -0 -0 -0 -0 -0 -0 -0
nan nan nan nan nan nan nan nan nan nan nan nan -0 -0 -0 -0 -0 -0 -0 -0 -0 -0 -0 -0 -0 -0 -0 -0 -0 -0 -0 -0 -0 -0 -0 -1 nan nan -0 -0 -0 -0 -0 -0 -0 -0 -0 -0 -0 -0 -0 -0 nan nan nan nan nan nan nan nan nan -0 -0 -0 -0 -0 -0 -0 -0 -0 -0 -0 -0 -0 -0 -0 -0 -0 -0 -0 -0 -0 -0 -0 -0 -0
nan nan nan nan nan nan nan nan nan nan nan -0 -0 -0 -0 -0 -0 -0 -0 -0 -0 -0 -0 -0 -0 -0 -0 -0 -4 -4 -0 -0 -0 -0 -0 -3 -0 -0 nan -0 -0 -0 -0 nan nan -0 -0 -0 -0 -0 -0 -0 -0 -0 -0 -0 -0 nan nan nan nan -0 nan -0 -0 -0 -0 -0 -0 -0 -0 -0 -0 -0 -0 -0 -0 -0 -0 -0 -0 -0 -0 -0 -0 -0
nan nan nan -0 -0 nan nan nan nan nan -0 -0 -0 -0 -0 -0 -0 -0 -0 -0 -0 -0 -0 -0 -0 -0 -5 -7 -0 -0 -0 -3 nan nan -8 -4 -2 -2 nan -0 -0 -0 -0 -0 -0 nan -0 -0 -0 -0 -0 -0 -0 -0 -0 nan nan nan nan -0 -0 -0 nan -0 -0 -0 -0 -0 -0 -0 -0 -0 -0 -0 -0 -0 -0 -0 -0 -0 -0 -0 -0 -0 -0 -0
-0 -0 -0 -0 -0 -0 nan -0 -0 -0 -0 -0 -0 -0 -0 -0 -0 -0 -0 -0 -0 -0 -0 -0 -0 -0 -0 -0 -0 -0 -0 -8 -3 -3 -6 -7 -3 -3 nan nan nan -0 -0 -0 -0 -0 nan nan nan -0 -0 -0 -0 -0 -0 -0 -0 -0 -0 -0 -0 nan nan nan nan -0 -0 -0 -0 -0 -0 -0 -0 -0 -0 -0 -0 -0 -0 -0 -0 -0 -0 -0 -0 -0
-0 -0 -0 nan nan -0 -0 -0 -0 -0 -0 -0 -0 -0 -0 -0 -0 -0 -0 -0 -0 -0 -0 -0 -0 -0 -0 -0 -0 -0 -0 -6 -0 -0 nan nan nan nan nan nan nan -0 nan -0 -0 nan nan nan nan -0 -0 -0 -0 -0 -0 -0 -0 -0 -0 -0 -0 -0 nan -0 -0 -0 -0 -0 -0 -0 -0 -0 -0 -0 -0 -0 -0 -0 -0 -0 -0 -0 -0 -0 -0 -0
-0 -0 -0 nan nan nan -0 -0 -0 -0 -0 -0 -0 -0 -0 -0 -0 -0 -0 -0 -0 -0 -0 -0 -0 -0 -0 -0 nan nan -0 nan nan nan nan nan nan nan nan nan nan nan nan -0 -0 -0 -0 -0 -0 -0 -0 nan nan nan -0 -0 -0 -0 -0 -0 -0 -0 -0 -0 -0 -0 -0 -0 -0 -0 -0 -0 -0 -0 -0 -0 -0 -0 -0 -0 -0 -0 -0 -0 -0 -0
-0 -0 -0 nan nan nan -0 -0 -0 -0 -0 -0 -0 -0 -0 -0 -0 -0 -0 -0 -0 -0 -0 -0 -0 -0 -0 nan nan nan nan -6 -2 -2 nan nan nan nan nan nan nan nan nan -0 -0 nan -0 -0 -0 -0 -0 nan -0 -0 -0 -0 -0 -0 -0 -0 -0 -0 nan nan nan nan -0 -0 -0 -0 -0 -0 -0 -0 -0 -0 -0 -0 -0 -0 -0 -0 -0 -0 -0 -0
-0 -0 nan nan nan -0 -0 -0 -0 -0 -0 -0 -0 -0 -0 -0 -0 -0 -0 -0 -0 -0 -0 -0 -0 -0 -0 -0 nan nan nan nan -3 -3 -1 -3 nan nan nan nan nan nan nan nan nan nan -0 -0 -0 -0 -0 nan -0 -0 -0 -0 -0 -0 -0 -0 -0 -0 nan -0 -0 -0 -0 -0 -0 -0 -0 -0 -0 -0 -0 -0 -0 -0 -0 -0 -0 -0 -0 -0 -0 -0
nan nan nan -0 -0 -0 -0 -0 -0 -0 -0 -0 -0 -0 -0 -0 -0 -0 -0 -0 -0 -0 -0 -0 -0 -0 -0 nan nan nan nan nan nan nan -4 -1 -1 -1 -4 -2 -2 -1 nan nan nan nan nan -0 -0 -0 -0 nan -0 -0 -0 -0 -0 -0 -0 -0 -0 -0 -0 -0 -0 -0 -0 -0 -0 -0 -0 -0 -2 -2 -0 -0 -0 -0 -0 -0 -0 -0 -0 -0 -0 -0
-0 -0 -0 -0 -0 -0 -0 -0 -0 -0 -0 -0 -0 -0 -0 -0 -0 -0 -0 -0 -0 -0 -0 -0 -0 -0 -0 -0 nan nan nan nan nan nan nan -0 -1 -1 -1 -3 -3 nan nan nan nan nan nan nan nan nan nan nan -0 -0 -0 -0 -0 nan -0 -0 -0 -0 nan -0 -0 -0 -0 -0 -0 -0 -0 -0 -0 -0 -0 -0 -0 -0 -0 -0 -0 -0 -0 -0 -0 -0
-0 -0 -0 -0 -0 -0 -0 -0 -0 -0 -0 -0 -0 -0 -0 -0 -0 -0 -0 -0 -0 -0 -0 -0 -0 -0 -0 -0 nan nan nan nan nan nan nan nan -0 -0 -0 -1 -1 -1 -1 nan nan nan nan nan nan nan nan nan -0 -0 -0 -0 -0 nan -0 -0 -0 -0 -0 -0 -0 -0 -0 -0 -0 -0 -0 -0 -0 -0 -0 -0 -0 -0 -0 -0 -0 -0 -0 -0 -0 -0
-0 -0 -0 -0 -0 -0 -0 -0 -0 -0 -0 -0 -0 -0 -0 -0 -0 -0 -0 -0 -0 -0 -0 -0 -0 -0 -0 -0 -0 -0 -0 -0 nan nan nan nan nan nan nan nan nan -0 -0 -0 -0 -0 -1 -5 -5 nan nan nan nan nan -0 -0 -0 -0 nan -0 -0 nan nan nan nan -0 -0 -0 -5 -5 -4 -0 -0 -0 -0 -0 -0 -0 -0 -0 -0 -0 -0 -0 -0 -0
-0 -0 -0 -0 -0 -0 -0 -0 -0 -0 -0 -0 -0 -0 -0 -0 -0 -0 -0 -0 -0 -0 -0 -0 -0 -0 -0 -0 -0 -0 -0 -0 nan nan nan nan nan nan nan nan nan nan -0 -0 -0 -0 -0 -2 -2 -0 -0 nan -0 -0 -0 -0 -0 -0 -0 -0 -0 nan nan nan nan nan -0 -5 nan nan nan nan -0 -0 -0 -0 -0 -0 -0 -0 -0 -0 -0 -0 -0 -0
-0 -0 -0 -0 -0 -0 -0 -0 -0 -0 -0 -0 -0 -0 -0 -0 -0 -0 -0 -0 -0 -0 -0 -0 -0 -0 -0 -0 -0 -0 -0 -0 nan nan nan nan nan nan nan -0 -0 -0 -0 -0 -0 -0 -0 -4 -4 -3 -0 nan nan nan nan nan nan nan nan nan nan nan nan nan nan nan nan nan -12 -12 -6 -0 -0 -0 -0 -0 -0 -0 -0 -0 -0 -0 -0 -0 -0 -0
-0 -0 nan -0 -0 -0 -0 -0 -0 -0 -0 -0 -0 -0 -0 -0 -0 -0 -0 -0 -0 -0 -0 -0 -0 -0 -0 -0 -0 -0 -0 nan -0 -0 nan nan nan nan -0 -0 -0 -0 -0 -0 -0 nan -0 nan nan nan nan -1 -5 -5 nan nan nan nan -0 -0 -0 -0 nan nan nan -1 -1 -0 -5 -5 -5 -2 -0 -0 nan -1 -0 -0 -1 -0 -0 -0 -0 -0 -0 -0
Wind_Speed
1 1 1 1 1 1 1 1 2 3 5 5 5 6 6 6 6 7 8 8 8 8 8 8 9 9 10 12 14 15 16 17 17 18 18 18 19 19 19 19 19 19 19 19 19 19 19 19 19 19 19 19 19 19 19 19 19 19 19 19 20 20 20 21 21 21 21 22 22 22 23 23 23 23 23 23 23 24 24 24 25 25 25 25 26 26
1 1 1 1 1 1 2 2 2 3 5 6 6 6 6 7 6 6 6 7 8 8 8 8 9 9 10 11 13 15 16 16 17 18 18 19 19 19 20 20 20 20 20 19 19 19 19 19 19 19 19 19 19 19 19 19 19 19 19 20 20 20 21 21 21 21 22 22 22 23 23 23 23 23 23 23 24 24 24 25 25 25 25 25 26 26
0 0 0 1 1 1 3 3 3 4 5 6 7 7 7 7 6 6 6 7 7 8 8 8 8 9 10 10 12 14 15 16 17 18 19 19 20 20 20 20 20 20 20 19 19 19 19 19 19 19 19 19 19 19 19 19 19 19 20 20 20 21 21 21 21 22 22 22 22 23 23 23 23 23 24 24 24 24 24 25 25 25 25 25 25 26
0 0 0 0 1 2 3 3 4 4 5 6 6 7 7 6 6 6 6 7 7 7 8 8 8 8 8 8 10 12 15 16 18 19 19 20 20 20 20 20 20 20 20 19 19 19 19 19 19 19 19 19 19 19 20 20 20 20 20 20 21 21 21 22 22 22 22 23 23 23 23 23 24 24 24 24 24 24 24 25 25 25 25 25 25 25
0 0 0 1 1 2 3 3 4 4 4 5 5 5 5 5 5 6 6 7 8 8 7 8 8 8 7 7 9 11 15 17 18 19 20 20 20 20 20 20 20 20 20 19 19 19 19 19 19 19 19 20 20 20 20 20 20 21 21 21 21 21 22 22 22 22 22 23 23 23 23 23 23 24 24 24 24 24 24 24 25 25 25 25 25 25
0 0 0 1 2 2 3 3 3 4 4 4 4 5 5 5 6 6 6 7 7 7 7 7 7 7 7 7 9 12 15 17 18 19 19 19 20 20 20 20 19 19 19 19 19 20 20 20 20 20 20 20 20 21 21 21 21 21 22 22 22 22 22 22 22 22 22 22 23 23 23 23 23 23 23 24 24 24 24 24 24 25 25 25 25 25
1 1 0 1 2 3 3 3 3 3 3 4 5 5 5 5 6 6 6 6 6 6 6 6 6 7 7 8 10 12 14 15 16 17 18 18 18 18 18 18 19 19 19 19 20 20 20 20 20 20 20 21 21 21 21 22 22 22 22 22 22 22 22 22 22 22 22 22 22 22 22 22 23 23 23 23 23 24 24 24 24 24 25 25 25 25
2 2 1 2 3 3 3 3 3 3 3 4 5 6 6 5 5 5 6 6 6 6 5 6 6 7 7 8 9 10 10 11 12 13 14 15 15 16 16 17 18 18 19 19 20 20 20 20 20 21 21 21 21 22 22 22 22 22 22 22 22 22 22 22 22 22 22 22 22 22 22 22 22 22 22 23 23 23 23 24 24 24 25 25 25 25
3 3 3 3 3 4 4 3 3 3 3 4 5 6 6 6 5 5 5 5 5 5 5 6 6 7 7 8 8 8 9 9 9 10 11 11 11 13 14 15 17 18 19 19 20 20 20 21 21 21 21 22 22 22 23 23 23 22 22 22 22 22 22 22 22 22 22 22 22 22 22 22 22 22 22 22 22 23 23 23 24 24 25 25 25 25
4 4 4 4 3 4 4 4 4 4 4 5 5 5 5 6 6 6 6 5 5 4 4 6 7 7 8 8 8 8 9 9 11 12 12 12 13 14 15 15 15 16 18 19 20 20 21 21 21 22 22 22 23 23 23 23 22 22 22 22 22 22 22 22 22 22 22 22 22 22 22 22 22 22 22 22 23 23 23 23 24 24 24 25 25 26
3 4 4 4 3 3 3 4 4 4 5 4 4 4 4 4 5 6 7 6 6 5 5 6 6 7 8 8 8 8 8 8 9 10 12 13 14 15 15 15 15 16 18 18 19 20 20 21 21 22 22 22 23 22 22 22 22 21 21 21 21 22 22 22 22 22 22 22 22 22 22 22 22 22 23 23 23 23 23 23 24 24 24 25 25 26
3 3 3 3 3 3 3 3 4 4 4 4 4 4 4 3 4 5 6 7 7 7 6 6 6 7 7 8 8 8 7 7 7 7 8 9 10 10 11 11 12 13 14 15 16 17 19 19 20 20 21 21 21 21 21 21 21 21 21 22 22 22 22 22 22 22 22 22 22 22 22 23 23 23 23 23 23 24 24 24 24 24 24 25 25 26
3 3 3 3 3 3 3 4 4 3 3 3 4 5 4 4 4 4 5 6 7 7 7 7 7 7 7 7 7 7 7 7 7 7 7 7 7 7 7 7 8 9 9 10 11 12 15 17 18 18 19 19 20 20 21 20 21 21 22 22 22 22 22 22 22 22 22 22 23 23 23 23 23 23 23 24 24 24 24 24 24 24 25 25 25 26
3 3 3 4 4 4 4 4 4 4 4 4 4 4 5 5 5 5 5 6 6 6 7 7 7 7 6 7 7 7 6 7 7 7 7 6 6 6 7 7 8 8 8 9 9 10 12 13 13 14 16 17 18 19 19 20 21 21 22 22 22 22 23 23 23 23 23 23 23 23 23 23 24 24 24 24 24 24 24 24 24 25 25 25 25 26
4 4 4 5 5 4 4 4 4 4 4 4 4 5 5 5 5 5 6 6 6 6 7 7 8 7 6 5 5 6 6 6 6 6 7 7 7 7 8 8 8 8 8 9 9 10 11 11 11 11 12 15 16 17 18 19 21 22 22 23 23 23 23 23 23 23 24 24 24 24 24 24 24 24 24 24 24 24 25 25 25 25 25 25 25 26
4 4 5 5 5 5 4 3 4 5 5 5 5 5 5 5 5 5 5 6 6 6 6 7 7 7 5 5 5 5 5 5 6 6 8 8 7 7 8 8 9 9 9 9 9 9 9 9 10 11 12 14 17 19 21 21 22 23 23 23 24 24 24 24 24 24 24 24 24 24 24 24 24 24 24 25 25 25 25 25 25 25 25 25 25 25
4 4 4 5 5 4 4 3 4 5 5 5 5 5 5 5 5 5 5 5 5 5 5 6 6 6 5 4 4 4 4 4 5 6 8 8 8 8 8 8 9 9 9 9 9 9 9 9 9 10 11 14 17 20 21 22 23 23 24 24 24 25 25 25 25 25 25 25 25 25 25 25 25 25 25 25 25 25 25 25 25 25 25 25 25 25
3 3 3 4 4 4 4 4 4 5 5 5 5 5 5 5 5 5 5 6 6 6 6 5 5 5 5 5 4 4 5 5 6 6 7 8 8 8 8 8 8 9 9 9 9 8 9 9 9 10 12 16 19 21 23 23 24 24 24 25 25 25 25 25 25 25 25 25 25 25 25 25 25 25 25 25 25 25 25 25 25 25 25 25 25 25
3 3 3 4 4 4 5 5 5 5 5 4 5 5 5 5 6 6 6 6 6 7 7 6 5 5 6 6 6 6 6 6 7 7 8 9 9 8 8 8 8 8 9 9 9 9 9 9 11 13 16 19 21 22 23 24 24 24 25 25 25 25 25 25 25 26 26 26 26 26 25 25 25 25 25 25 25 25 25 25 25 25 25 25 25 25
4 4 4 4 5 5 5 5 4 4 5 4 5 5 6 6 7 7 7 7 6 6 6 6 6 6 6 7 7 7 7 7 7 7 8 9 9 9 8 7 8 8 9 9 8 8 8 9 10 13 16 19 20 22 23 23 24 24 25 25 25 25 26 26 26 26 26 26 26 26 26 26 26 26 26 26 26 26 26 26 26 25 25 25 25 25
5 5 5 5 5 5 4 4 5 5 6 6 6 7 7 7 7 7 7 6 6 6 5 5 6 6 5 7 8 8 7 7 7 6 6 7 8 8 7 7 7 8 9 9 8 8 8 9 9 10 13 17 20 22 23 24 24 25 25 25 25 26 26 26 26 26 26 26 26 26 26 26 26 26 26 26 26 26 26 26 25 25 25 25 25 25
5 6 6 6 6 5 5 5 6 7 8 8 7 7 7 7 7 7 6 6 5 5 5 6 6 6 7 8 9 9 8 7 6 6 5 6 8 8 6 6 7 8 9 8 8 8 9 9 9 10 13 18 21 22 23 24 24 25 25 25 25 25 25 26 26 26 26 26 26 26 26 26 26 26 26 26 26 25 25 25 25 25 25 25 25 26
5 6 6 6 6 6 6 6 7 7 8 8 8 8 7 6 6 6 5 5 5 6 6 6 7 7 8 9 9 8 7 6 5 5 5 7 8 8 6 6 6 7 8 8 8 8 9 9 9 11 14 18 21 22 23 24 24 25 25 25 25 25 25 25 25 25 26 26 26 26 26 26 26 26 26 26 26 25 25 25 25 25 25 25 25 25
5 6 5 5 5 5 6 6 7 7 7 7 7 7 6 5 5 4 4 5 6 6 7 7 8 8 8 9 8 8 7 5 5 4 4 6 7 7 6 6 7 8 8 8 8 8 9 9 9 10 11 16 19 21 23 24 24 24 25 25 25 25 25 25 25 25 25 25 26 26 26 26 26 26 26 26 26 26 26 25 25 25 25 25 25 25
5 6 5 5 6 7 7 8 8 7 6 5 5 4 5 6 7 7 8 7 7 7 7 7 8 8 7 8 7 7 6 5 4 4 4 5 6 7 6 6 7 8 8 8 8 8 9 9 10 10 10 13 17 20 22 23 24 24 24 25 25 25 25 25 25 25 25 25 26 26 26 26 26 26 26 26 26 26 26 25 25 25 25 25 25 25
8 8 9 9 10 12 12 12 12 12 12 10 8 8 8 8 8 8 8 8 7 7 7 7 7 7 7 6 6 6 5 4 4 4 4 5 6 7 6 6 7 8 8 8 8 8 9 10 10 10 10 11 14 17 20 21 23 24 24 24 25 25 25 25 25 25 26 26 26 26 26 26 26 26 26 26 26 25 25 25 25 25 25 25 25 24
12 12 13 13 13 13 14 14 15 16 17 16 14 12 10 8 8 8 8 7 6 6 6 7 7 7 7 6 6 6 5 4 4 4 5 5 6 6 6 6 6 7 9 8 8 8 10 10 10 10 10 10 11 14 18 20 21 23 23 24 24 25 25 25 26 26 26 26 26 26 26 26 26 26 25 25 25 25 25 25 25 25 25 24 22 20
11 11 11 11 12 12 13 14 15 16 17 17 17 16 12 8 7 7 7 6 5 5 6 6 7 7 6 6 6 6 6 5 4 5 4 5 5 6 6 6 6 7 8 7 8 9 10 10 10 10 10 10 10 11 14 17 19 21 22 23 24 25 25 25 26 26 26 26 26 26 26 26 26 26 25 25 25 25 25 25 25 24 23 19 15 12
8 8 9 10 11 12 12 13 14 14 15 16 16 14 10 7 6 6 6 5 5 5 6 6 6 6 6 7 7 7 7 6 5 4 3 4 5 5 6 6 6 6 7 7 7 7 7 8 8 8 8 9 9 9 11 13 15 17 18 21 22 23 24 24 25 25 25 25 26 26 26 26 26 26 25 25 25 25 25 25 24 22 17 14 12 10
5 6 7 8 9 10 10 10 10 11 13 14 14 12 9 6 5 5 5 4 5 6 6 7 7 6 6 6 7 7 6 4 2 1 2 3 4 5 6 6 7 6 6 6 6 6 6 6 6 7 7 9 9 9 9 10 11 12 13 16 18 19 21 22 23 24 24 25 25 25 26 26 26 25 25 25 25 25 25 25 23 18 12 11 10 9
4 5 6 6 7 7 7 7 7 8 10 10 10 9 7 5 5 4 4 5 5 6 6 6 6 6 6 5 5 5 4 3 2 2 3 3 4 5 6 7 7 6 5 4 5 6 6 6 5 6 7 8 9 9 10 10 10 10 10 11 12 14 17 19 21 22 22 23 24 24 25 25 25 25 25 25 25 25 25 25 22 17 11 10 9 9
5 5 5 5 5 5 5 5 5 6 6 6 6 6 6 5 5 5 5 5 5 6 6 6 7 7 6 6 6 5 5 4 4 5 5 4 4 5 6 6 7 7 5 5 5 6 6 6 6 6 7 8 9 9 10 10 10 10 10 10 10 12 15 17 18 18 18 20 21 22 23 24 24 24 24 24 24 24 24 25 22 18 12 10 9 9
6 5 5 5 5 4 4 4 5 5 5 5 5 5 5 5 6 6 5 5 5 5 6 6 7 7 7 7 7 7 6 6 6 7 7 5 4 5 5 6 7 7 6 6 6 6 6 7 7 7 8 8 8 9 9 10 10 10 10 10 10 11 13 13 14 14 14 16 17 18 20 21 22 23 23 23 24 24 24 24 22 19 14 11 9 10
6 6 6 5 5 4 4 4 5 5 5 5 5 5 4 5 5 5 6 5 5 5 6 6 7 7 7 7 8 8 8 7 7 7 7 5 5 5 6 7 7 7 7 6 6 6 6 8 8 8 8 8 8 8 9 9 10 10 9 9 9 10 10 11 11 11 12 12 13 13 14 16 17 18 20 20 21 21 22 22 22 21 19 14 11 10
6 6 6 5 5 5 4 4 4 4 5 5 5 5 5 5 5 5 5 6 6 6 6 6 6 7 7 7 8 8 8 8 7 8 7 6 5 5 6 7 7 7 7 7 7 6 6 8 9 9 9 9 8 8 8 8 9 9 9 9 9 9 10 10 10 10 11 11 11 11 11 11 12 13 14 16 18 19 20 21 22 22 22 19 16 13
5 5 5 5 5 5 5 5 5 5 5 5 5 5 5 5 5 5 5 6 6 6 7 7 7 7 7 7 8 9 9 9 9 9 8 7 6 6 6 6 7 7 8 8 7 7 7 8 10 10 10 10 9 8 7 8 8 8 9 9 9 10 10 10 10 10 10 11 11 11 10 10 10 11 12 15 18 19 21 21 22 22 22 22 21 19
5 5 5 5 5 5 5 5 5 5 5 5 5 5 5 5 6 6 6 6 6 7 7 8 8 8 9 9 9 10 10 10 10 10 11 9 8 7 7 7 8 8 8 8 8 8 8 9 10 10 10 9 9 8 8 8 9 9 9 9 9 10 10 10 10 10 10 11 11 11 11 11 11 11 12 15 17 18 19 20 21 21 22 22 22 22
5 5 5 5 5 5 5 5 5 5 5 5 5 5 6 6 7 7 7 7 7 8 8 8 8 9 12 12 12 12 12 13 14 14 13 11 9 8 8 8 9 9 8 8 8 9 9 9 10 10 9 9 9 10 10 10 10 10 10 10 10 10 10 10 10 10 10 10 11 11 12 11 11 11 11 12 12 12 13 13 14 16 18 18 19 20
5 5 5 5 5 5 5 5 5 5 5 5 6 6 6 7 8 8 7 7 8 8 9 8 8 9 11 12 13 14 15 15 14 14 13 12 10 9 9 9 9 9 9 9 8 9 9 9 9 9 9 9 10 10 10 10 10 11 11 10 10 10 10 10 10 9 9 10 11 12 11 11 11 10 10 10 10 10 10 10 11 12 12 12 13 15
5 5 5 5 5 5 5 5 5 5 6 6 7 7 7 7 7 7 7 7 8 8 9 9 9 9 9 10 11 12 13 12 12 12 11 11 10 9 9 9 9 9 9 9 8 9 9 9 10 10 10 9 10 10 10 10 11 11 12 10 9 9 10 10 10 10 10 10 10 11 11 10 10 10 10 10 10 10 10 9 9 10 10 9 9 10
5 5 5 5 5 5 5 5 6 6 6 6 6 6 6 6 6 6 6 7 7 7 7 8 8 8 9 9 10 11 11 11 11 12 10 11 11 10 9 9 9 9 9 9 9 9 9 10 10 11 10 10 11 11 12 12 13 14 14 12 11 11 11 11 11 10 10 10 10 10 10 11 11 11 10 10 10 10 10 10 10 10 10 9 9 9
5 5 5 5 5 5 5 6 6 7 7 6 6 6 6 6 6 6 6 6 6 6 6 6 7 7 8 8 8 9 9 9 10 10 11 11 11 11 10 10 9 9 9 9 10 10 10 10 10 11 10 10 10 11 11 12 13 13 13 12 12 12 12 12 11 9 9 9 9 10 11 11 11 11 11 11 10 10 10 11 12 12 11 10 10 9
5 5 5 5 5 6 6 6 6 6 6 6 6 6 6 5 6 6 7 7 7 7 6 6 7 7 8 8 8 8 7 7 8 9 10 10 10 11 11 11 10 9 8 9 10 10 11 11 11 11 11 10 10 11 12 13 13 13 13 13 12 11 8 8 8 9 9 10 10 10 10 10 10 10 10 10 10 10 10 11 13 13 13 11 11 10
5 5 5 5 5 5 6 5 5 5 6 6 6 6 6 6 6 7 7 6 7 7 7 6 6 7 8 9 9 8 8 7 7 8 8 9 10 10 10 11 11 10 10 9 9 10 10 10 11 11 10 10 10 11 12 12 13 13 12 13 12 11 10 9 10 10 10 10 10 10 11 11 11 10 10 10 10 10 10 10 10 11 12 12 11 11
5 5 5 5 5 5 5 6 6 6 6 6 6 7 6 6 6 7 6 7 7 7 7 6 6 6 7 8 8 8 8 8 7 7 7 8 10 11 10 10 10 10 10 10 10 10 9 10 10 10 10 9 10 11 12 13 13 13 13 13 13 12 12 12 11 11 11 11 11 11 12 11 11 10 10 10 10 10 10 10 10 11 11 11 11 11
5 5 5 5 5 6 6 6 6 6 6 7 7 7 6 6 6 6 7 7 7 7 7 6 6 6 7 8 8 8 8 9 8 7 7 7 7 8 8 8 8 9 9 9 10 10 10 10 11 11 10 10 11 12 13 13 13 13 13 13 12 12 12 12 11 11 11 11 12 12 12 12 11 11 10 11 11 11 10 10 11 11 11 11 11 11
5 5 5 5 5 6 6 6 6 6 7 7 7 7 6 6 6 6 6 6 7 7 7 6 6 7 8 8 8 8 9 10 10 9 8 8 8 7 7 7 8 9 9 9 10 11 11 11 11 11 10 10 11 12 12 12 12 12 12 12 12 11 11 11 11 11 11 11 12 12 12 11 11 11 11 11 11 11 10 10 11 11 11 11 11 11
5 5 6 6 6 6 6 6 6 6 7 7 7 7 6 6 7 7 6 6 6 6 7 6 7 7 8 8 8 9 9 10 10 10 10 9 9 8 7 7 7 8 9 10 11 12 12 12 12 12 11 11 11 12 13 12 12 12 12 11 11 11 11 12 11 11 11 11 12 12 11 10 10 11 11 11 11 10 10 10 10 10 10 10 10 11
5 5 6 6 6 6 6 6 6 7 7 7 7 7 6 7 7 8 6 6 6 6 6 7 7 8 8 8 9 9 10 10 10 10 10 9 9 8 8 8 8 8 8 9 10 10 11 12 13 13 13 12 12 13 13 13 12 12 11 11 11 11 11 11 11 11 11 11 11 11 11 10 10 10 11 11 11 12 12 11 11 10 10 10 10 10
5 5 6 6 6 7 7 7 7 7 7 7 7 7 7 7 6 6 6 6 6 6 6 7 8 8 9 9 9 9 9 9 9 9 9 9 8 8 8 8 9 9 9 9 8 9 9 9 10 11 13 13 13 13 13 13 12 12 11 11 10 10 11 11 11 10 10 11 11 11 11 10 10 10 10 11 12 13 12 11 11 10 9 9 10 10
6 6 6 6 6 7 7 7 7 7 7 8 8 8 7 7 7 6 6 6 6 7 7 7 8 8 9 9 9 10 10 9 10 10 10 9 8 8 9 9 9 9 9 8 8 8 8 8 8 8 9 12 13 13 11 12 12 11 11 11 10 10 10 10 10 10 11 11 10 10 10 10 10 10 9 10 11 12 12 12 11 10 10 9 9 10
Wind_Direction
228 186 120 136 190 260 261 241 264 282 289 292 294 295 295 296 296 296 297 298 299 300 300 300 300 300 299 297 297 297 298 298 299 299 299 300 300 301 301 300 300 299 298 297 296 295 294 293 292 292 291 290 289 289 288 288 288 288 288 289 289 289 289 289 289 289 289 289 289 289 289 289 289 289 288 288 287 287 286 285 284 284 283 283 282 282
203 164 118 132 184 261 279 254 251 265 281 288 292 294 296 297 297 297 298 298 298 299 300 301 300 300 298 296 295 295 296 297 298 299 300 300 301 301 301 301 300 299 298 297 296 295 294 293 292 291 290 290 289 289 288 288 288 289 289 289 289 289 289 289 289 289 289 289 289 289 289 288 288 287 287 286 285 284 284 283 282 282 281 281 281 281
127 112 124 134 177 246 277 267 256 256 268 279 285 290 294 295 296 297 300 301 302 302 301 301 299 298 297 295 294 294 295 297 298 299 300 301 302 302 302 301 300 299 298 297 296 295 293 292 292 291 290 290 289 289 288 288 289 289 289 289 289 289 289 289 289 289 289 289 288 288 287 287 286 286 285 284 284 283 282 282 282 281 281 281 281 281
15 297 259 173 214 243 261 267 265 262 263 273 280 284 287 289 291 294 298 301 302 301 299 298 297 296 294 293 292 293 295 297 299 300 301 302 302 302 302 301 300 299 298 297 296 295 294 293 292 291 290 290 289 289 289 289 289 289 289 289 290 290 290 290 290 289 289 288 288 287 286 286 285 284 284 283 282 282 282 281 281 281 281 280 280 280
207 247 250 251 256 254 250 256 260 263 266 270 274 277 278 282 288 293 297 298 299 299 299 298 296 294 292 291 292 294 296 298 300 301 302 301 301 301 300 299 299 298 297 296 295 294 294 293 292 291 291 290 290 289 290 290 290 290 290 291 291 291 291 291 291 290 290 289 288 287 287 286 285 284 283 282 282 281 281 280 280 280 279 279 279 278
258 237 244 259 268 271 267 257 257 262 269 271 275 278 281 285 289 292 295 297 298 298 298 297 295 293 290 288 291 294 297 299 300 300 300 300 299 298 298 297 297 296 296 295 294 294 293 292 292 291 291 290 290 290 291 291 291 292 292 292 292 292 292 292 291 291 290 289 288 288 286 285 284 283 282 281 281 280 280 279 279 278 278 277 276 276
273 251 247 259 267 269 271 262 258 263 277 286 291 292 292 292 292 292 293 294 295 296 296 294 292 290 288 289 292 295 298 299 299 299 298 297 296 295 295 295 295 294 294 294 293 293 292 292 291 291 291 291 291 291 292 292 292 293 293 293 293 293 293 292 292 291 290 289 288 287 285 284 283 282 281 280 279 279 278 278 277 276 276 275 274 274
272 266 255 262 267 268 266 259 257 264 282 296 300 301 300 298 295 294 293 291 290 291 293 293 293 293 293 295 297 298 299 299 298 297 296 295 294 293 293 293 293 294 293 293 293 292 292 292 292 292 292 292 292 292 292 293 293 293 293 294 294 293 293 292 291 290 289 288 287 285 284 283 282 281 279 278 277 277 276 275 275 275 274 274 273 273
269 271 266 260 265 273 278 273 273 278 288 293 296 299 301 301 300 299 296 292 289 290 294 298 300 300 300 301 300 299 297 295 294 294 293 293 294 294 294 294 294 294 294 294 293 293 293 293 292 293 292 292 292 292 293 293 293 293 293 293 293 293 292 291 290 289 288 287 286 284 283 282 280 279 278 276 275 275 274 273 273 273 273 273 273 272
259 264 268 261 262 270 284 290 292 292 289 285 285 287 292 298 302 303 303 302 301 300 299 302 303 303 303 302 301 299 296 293 291 290 289 290 290 292 293 293 294 294 294 294 294 293 293 293 293 293 292 292 292 292 292 292 292 292 293 292 292 292 291 290 289 288 287 286 284 283 282 280 279 278 276 275 274 273 273 272 272 272 272 273 273 273
254 256 264 268 269 271 277 286 291 290 282 275 270 269 269 286 299 306 309 309 309 308 305 304 303 303 303 302 301 299 297 294 291 289 288 288 288 289 290 290 291 291 292 293 293 293 292 292 292 292 292 291 291 291 291 291 291 292 292 292 291 291 290 289 288 287 286 284 283 282 280 279 278 277 276 275 275 274 273 273 272 272 273 273 273 273
259 261 267 275 278 279 275 278 280 280 274 272 276 280 280 291 302 308 308 308 308 309 308 305 302 300 298 298 298 297 295 294 293 292 290 289 289 289 289 289 290 291 291 291 291 291 291 291 291 291 291 290 290 290 291 291 291 291 291 290 290 289 288 287 286 284 284 283 282 281 280 279 279 278 277 277 276 275 275 274 274 274 273 273 273 274
256 262 268 275 278 281 282 285 285 285 285 291 298 304 306 310 311 308 303 302 303 304 305 303 300 296 292 290 290 291 291 291 292 292 293 293 293 293 293 293 293 293 293 293 292 292 292 292 292 291 291 290 290 290 291 290 290 290 290 289 288 287 286 285 284 284 283 283 282 282 281 281 280 279 279 278 278 277 276 275 275 274 274 274 274 274
258 263 269 275 279 283 286 289 292 295 298 302 303 305 306 309 307 304 298 296 297 299 300 299 296 294 290 285 283 282 285 288 291 293 295 296 299 300 300 299 298 298 298 296 294 293 294 295 293 292 291 291 290 290 290 290 289 288 288 287 287 286 286 285 285 285 285 284 284 283 283 282 281 281 280 279 279 278 277 277 276 275 275 274 274 273
263 272 278 282 284 286 287 291 293 296 299 303 304 305 306 305 303 299 295 295 297 298 298 294 291 289 286 284 281 280 282 288 294 298 299 300 302 303 304 302 300 298 297 294 293 293 295 294 293 291 290 289 288 288 289 289 288 288 288 287 287 287 287 287 287 286 286 286 285 284 283 283 282 281 281 280 280 279 278 278 277 276 275 275 274 274
270 276 280 282 284 285 289 294 297 299 301 304 305 306 306 302 299 295 293 295 297 298 295 293 291 290 285 284 284 285 288 294 298 301 302 301 302 304 305 302 299 296 294 293 292 292 293 291 289 288 287 287 287 287 288 288 288 288 288 288 288 288 288 288 288 287 287 286 286 285 284 284 283 282 282 281 281 280 279 279 278 277 276 276 275 274
273 275 278 283 286 290 296 297 297 299 302 304 304 303 301 297 294 293 292 292 292 291 287 289 292 295 296 295 295 297 302 303 303 303 302 300 301 302 303 299 296 294 292 290 289 290 291 289 287 285 285 285 286 287 288 288 288 289 289 289 289 289 288 288 288 287 287 287 286 286 285 285 284 284 283 283 282 281 281 280 279 278 278 277 276 275
270 275 280 286 290 295 301 300 300 300 300 302 300 297 289 286 287 288 286 284 283 283 283 285 288 292 297 299 302 310 318 314 310 306 302 298 297 298 299 295 291 289 288 286 286 287 287 285 284 284 284 285 286 287 288 288 288 288 288 288 288 288 288 288 288 288 288 287 287 287 287 286 285 285 284 284 283 282 282 281 280 279 278 278 277 276
277 278 283 288 292 296 297 296 297 298 300 299 298 294 288 286 285 284 281 278 276 276 279 282 284 285 289 291 298 309 320 317 311 305 299 296 296 296 296 291 287 284 284 284 284 285 284 283 283 283 283 285 286 286 287 287 287 287 287 288 288 288 288 288 288 288 288 288 288 288 287 287 286 286 285 285 284 283 282 282 281 280 279 278 277 276
287 282 283 289 292 292 290 290 292 294 294 294 293 292 291 289 284 279 275 273 272 271 273 276 279 282 286 290 297 305 315 314 308 301 295 293 292 292 292 288 285 283 282 282 283 284 284 283 283 283 283 284 285 286 286 287 287 287 287 287 288 288 288 288 288 288 288 288 288 288 288 288 287 286 286 285 284 284 283 282 281 281 280 279 278 277
289 286 286 288 289 289 287 289 290 291 291 291 290 288 285 282 277 273 272 274 276 275 272 272 277 284 292 295 297 302 310 309 304 297 293 290 288 287 288 285 283 282 282 282 283 283 284 283 283 283 283 285 285 286 286 287 287 288 288 288 288 288 288 289 289 289 289 289 289 289 288 288 287 287 286 285 284 284 283 283 282 282 281 281 280 279
287 286 286 286 285 285 287 291 293 292 291 287 282 277 274 274 274 276 279 281 282 281 279 282 288 294 297 294 294 296 301 298 295 292 292 287 285 284 285 282 281 281 281 283 284 285 284 284 283 284 284 285 286 287 287 288 288 288 289 289 289 289 289 289 290 290 290 289 289 289 288 288 287 286 286 285 285 285 284 284 284 284 283 282 282 281
284 286 291 289 287 286 289 292 291 288 283 276 270 266 265 268 272 277 281 284 287 290 291 293 294 293 289 287 288 290 291 288 285 283 282 281 281 283 286 286 284 282 281 285 287 288 287 285 284 284 285 286 286 287 288 289 289 290 290 290 290 290 290 290 290 290 289 289 289 288 288 288 288 287 287 287 287 287 286 286 285 285 284 283 282 281
281 284 286 284 282 282 282 281 278 273 268 263 261 260 261 264 271 278 284 290 292 293 292 292 290 287 284 284 285 286 286 284 280 276 274 277 281 285 290 290 287 285 284 286 289 290 289 286 285 284 285 286 287 288 289 290 290 291 291 291 291 291 291 290 290 290 289 289 289 289 289 289 289 289 289 289 288 288 287 286 285 285 284 283 282 280
281 280 279 278 277 275 275 273 274 276 278 276 279 285 290 293 294 294 293 292 291 291 291 291 289 287 286 288 287 286 287 283 276 271 270 275 279 283 287 290 289 287 287 288 289 289 288 287 287 286 286 287 288 289 289 290 291 291 292 292 292 291 291 291 291 290 290 290 290 290 290 290 290 289 289 288 288 287 286 286 285 284 283 282 281 280
293 291 291 290 289 289 291 293 296 300 304 305 307 307 306 304 301 297 292 290 291 293 294 291 288 286 288 288 287 286 287 282 274 267 266 274 280 283 288 289 287 287 288 290 291 291 291 290 289 289 289 288 288 289 289 290 290 291 291 291 291 291 292 292 292 292 291 291 291 290 289 289 288 288 287 287 287 286 286 285 284 284 283 282 281 280
300 298 297 298 299 302 305 306 307 306 306 304 303 301 300 299 295 290 286 288 291 294 291 287 286 287 289 287 285 286 290 288 278 269 266 272 279 283 287 288 289 289 291 292 293 293 292 291 291 290 288 288 288 288 288 288 289 290 290 291 292 292 292 292 292 292 291 290 290 289 288 288 287 287 286 286 286 285 285 285 285 284 284 284 282 280
302 302 303 305 306 307 307 305 304 302 301 299 298 297 295 292 286 282 280 286 290 290 284 282 284 287 288 287 288 289 290 285 278 271 269 271 274 279 285 291 293 294 294 294 293 292 290 287 286 286 285 285 286 286 287 289 290 290 291 291 291 291 291 291 291 290 290 289 289 288 288 288 287 287 286 286 286 286 285 285 285 285 285 284 282 280
305 307 308 307 306 305 304 302 300 297 295 294 294 294 291 284 278 276 280 287 289 284 279 278 279 281 284 286 288 287 285 279 275 272 271 272 274 279 288 294 297 298 299 297 295 290 284 281 282 283 285 288 290 291 291 292 292 291 291 290 289 289 289 289 289 289 289 289 289 288 288 288 287 287 287 286 286 286 286 286 287 286 285 283 281 278
310 309 305 301 300 299 298 295 292 290 289 289 290 290 287 281 276 275 280 283 280 276 274 275 276 277 281 286 287 286 281 276 271 267 273 276 279 285 294 297 299 300 303 303 300 294 287 283 283 287 292 294 295 295 294 293 292 290 289 288 288 287 287 288 288 288 288 288 288 288 288 288 287 287 287 287 287 287 287 287 287 286 284 281 279 276
300 297 293 292 291 289 287 284 282 282 283 286 287 287 285 279 273 269 268 267 266 267 269 272 273 275 278 283 285 285 283 285 291 301 302 288 286 290 298 297 297 297 301 301 301 300 299 295 293 294 298 298 296 294 291 290 289 289 288 288 287 286 286 287 287 288 288 288 288 288 288 288 288 288 287 287 287 287 286 286 286 286 283 280 277 275
292 290 290 289 287 282 277 276 275 276 278 280 280 278 275 271 267 262 259 258 258 261 265 268 271 273 274 273 274 276 280 288 298 303 303 293 287 288 294 293 294 294 296 289 287 290 296 299 302 303 301 297 294 291 289 288 287 287 287 287 286 285 286 287 288 288 288 288 288 288 288 288 287 287 287 286 286 285 285 285 285 284 281 279 276 274
296 294 292 290 286 280 273 272 272 272 273 272 270 267 265 263 262 261 260 258 258 260 263 268 271 273 273 271 270 270 273 280 288 293 295 290 287 287 291 291 292 293 293 286 280 277 280 288 295 299 298 294 291 290 289 288 287 285 285 285 285 285 287 288 288 288 288 288 288 288 288 287 287 286 285 285 284 284 283 283 282 281 279 276 274 272
299 297 295 292 287 281 275 272 271 270 270 269 267 265 264 264 265 266 267 266 264 263 264 267 270 273 274 273 272 271 272 275 282 289 294 291 287 286 290 291 292 292 293 289 284 281 277 281 287 293 295 293 291 289 289 288 287 286 284 284 284 285 287 288 288 288 287 288 287 287 286 286 285 284 283 283 282 281 281 281 280 279 277 274 272 270
298 296 295 293 289 285 282 278 275 275 274 275 276 277 277 277 277 276 274 273 271 268 265 264 265 267 269 272 274 275 276 279 286 292 295 290 287 287 289 288 289 291 292 289 288 286 283 284 286 289 293 293 292 289 287 287 287 287 285 284 284 284 285 286 286 286 286 286 285 284 283 283 282 282 281 280 279 279 279 279 278 278 276 274 272 270
298 297 296 294 293 292 291 291 291 292 292 291 290 289 288 287 284 282 279 277 275 273 270 267 265 264 264 266 269 272 277 282 287 291 291 288 287 286 286 285 287 288 288 286 285 284 284 285 287 287 289 290 291 291 289 290 290 290 289 287 285 284 284 283 283 284 284 283 282 281 281 280 280 279 278 278 278 278 279 279 278 278 277 275 274 272
294 295 295 296 297 298 300 300 302 301 300 297 295 293 292 290 288 286 283 279 277 275 273 271 268 265 262 262 264 268 274 280 284 285 285 284 282 280 279 280 282 282 281 282 283 284 284 285 286 286 285 285 288 292 296 298 297 294 290 290 289 287 285 284 282 281 280 279 278 278 278 278 278 278 278 278 278 279 279 279 278 277 277 276 274 273
294 296 299 300 301 301 301 302 301 301 300 299 298 297 296 293 291 289 286 282 277 273 270 269 267 266 264 263 263 265 269 273 276 277 277 276 274 272 272 275 276 276 274 275 278 280 282 284 286 287 286 284 285 289 294 297 297 295 293 292 290 288 286 284 281 278 276 276 277 277 278 278 279 279 279 279 279 279 278 278 276 276 276 275 273 272
292 295 299 300 302 302 302 302 301 301 301 300 299 298 297 294 291 289 286 283 279 275 272 271 270 268 265 263 263 263 265 267 268 268 269 267 265 265 267 271 273 274 272 271 272 274 276 277 280 282 285 287 289 289 291 292 292 293 295 294 291 286 283 283 282 281 280 280 280 280 280 279 278 278 277 277 276 275 274 274 273 273 273 273 272 271
294 296 298 300 302 303 301 301 302 302 301 299 298 297 295 293 291 289 285 283 280 278 276 274 273 271 268 266 265 264 264 264 263 263 263 260 258 259 262 265 269 272 273 271 268 267 268 271 273 275 278 282 286 289 290 289 289 291 295 295 292 289 288 289 289 287 285 282 280 279 279 277 276 275 274 273 272 270 269 270 270 270 270 270 271 271
297 297 298 301 302 301 298 299 299 299 298 296 295 294 293 292 291 290 288 285 282 280 279 278 277 276 275 272 270 269 267 265 263 262 260 256 254 254 257 260 264 268 270 270 268 266 266 268 271 273 274 277 280 282 283 283 285 288 291 289 288 288 291 291 289 286 282 279 276 276 276 277 277 275 274 272 270 268 267 267 268 269 268 265 264 265
296 297 300 301 301 299 298 296 295 294 293 293 292 291 290 291 291 292 292 291 289 288 287 287 287 287 286 283 279 273 267 263 259 257 256 253 251 251 253 255 258 262 266 268 268 267 266 267 269 271 272 275 277 279 280 281 283 284 284 284 286 288 290 286 283 281 281 280 280 280 279 279 278 277 275 274 272 270 268 267 266 266 265 263 261 259
296 297 298 297 296 294 293 293 293 293 293 291 289 288 287 289 290 291 292 292 292 293 293 293 294 294 294 292 289 284 276 265 259 257 256 252 250 249 251 253 254 257 260 264 267 268 268 267 266 267 269 271 272 274 277 280 282 282 281 281 284 287 288 286 286 286 286 284 283 282 280 278 277 276 275 274 273 271 269 266 264 263 261 261 260 258
293 293 293 292 291 290 291 293 293 293 292 289 288 287 287 287 288 288 289 289 291 293 296 297 296 295 292 291 293 294 295 288 277 266 260 256 253 251 253 254 255 255 255 258 264 269 272 270 267 266 267 269 269 271 274 277 279 280 280 279 279 278 277 283 288 290 287 283 280 278 276 276 277 277 277 274 272 270 267 265 262 260 258 257 256 255
289 290 290 291 292 293 294 294 293 293 291 289 288 287 286 287 287 287 288 289 291 293 295 297 297 295 293 294 297 300 301 300 295 287 274 266 262 261 260 259 259 259 257 256 259 263 268 271 272 272 271 269 268 268 270 274 276 277 278 278 277 275 273 277 280 282 281 280 279 278 277 277 278 278 277 274 271 268 266 264 262 260 257 254 252 251
287 288 289 292 293 294 293 293 293 292 289 286 285 285 285 286 286 285 285 288 290 292 292 294 293 292 292 296 299 301 302 302 301 299 295 286 277 270 266 264 263 262 261 259 258 258 259 264 269 273 275 272 269 267 266 269 272 275 277 277 277 277 276 276 276 276 276 277 278 278 278 279 278 277 275 274 272 270 267 265 262 261 259 255 252 250
288 290 292 293 293 292 291 291 291 289 288 287 287 287 287 287 287 286 285 286 287 289 291 291 289 286 287 291 294 297 299 300 301 301 301 299 295 289 283 277 272 268 266 265 263 261 259 259 262 265 269 271 271 270 269 268 269 271 274 276 277 277 277 276 276 275 274 274 275 276 278 279 277 275 273 273 273 272 269 267 264 262 259 256 253 251
291 293 294 295 294 293 292 291 290 289 288 288 288 288 288 289 289 289 288 289 289 290 292 291 288 285 284 285 287 289 292 294 297 299 301 301 300 298 294 291 285 280 275 273 270 268 265 262 259 258 259 263 267 270 272 270 269 269 271 274 275 275 275 275 275 275 273 272 271 271 272 273 273 273 274 274 274 273 272 271 268 265 261 258 256 254
294 294 293 293 292 291 290 290 290 289 289 289 290 290 291 291 291 291 291 291 290 289 287 286 285 285 285 285 286 287 288 289 291 294 296 298 300 300 300 299 296 292 287 283 279 275 272 266 260 254 250 251 257 263 269 270 270 269 270 271 271 272 273 274 275 275 275 273 271 268 266 266 267 269 272 274 275 275 276 274 272 268 264 260 257 255
292 291 290 290 289 289 289 290 291 291 291 292 293 293 294 293 292 291 289 288 286 284 281 281 282 283 284 286 287 288 288 289 289 290 292 295 298 300 301 301 301 300 297 293 290 287 284 278 266 255 246 244 247 254 263 268 271 271 271 270 270 271 273 275 277 278 278 277 276 273 269 268 267 267 268 271 274 276 278 277 275 272 268 264 260 257
293 291 289 288 288 289 290 291 292 291 292 292 293 293 294 294 293 291 289 287 285 283 281 279 279 279 281 284 285 286 286 286 287 288 290 293 296 298 298 299 300 300 300 299 298 298 297 295 289 278 262 251 247 249 258 266 272 275 275 274 274 275 276 278 279 281 281 281 280 278 275 273 271 269 268 270 274 277 280 279 278 276 274 271 268 264